Location: Ferchesar
(52.6477°N, 12.4298°E)
Time: 23:07:04
(UTC+01:00)

TIGRISAT - Pass Details

Date: 24 October 2021
Orbit: 603 x 689 km, 97.7° (Epoch: 30 November)

Event Time Altitude Azimuth Distance (km) Brightness Sun altitude
Rises 19:52:54 0° 18° (NNE) 2,986 ? -18.4°
Reaches altitude 10° 19:55:15 10° 26° (NNE) 2,056 ? -18.7°
Enters shadow 19:57:01 22° 38° (NE) 1,414 ? -19.0°
Exits shadow 20:02:41 16° 164° (SSE) 1,638 ? -19.9°
Drops below altitude 10° 20:03:38 10° 169° (S) 1,991 ? -20.0°
Sets 20:05:53 0° 177° (S) 2,880 ? -20.3°
